Showing default

SKYSAT C9, 42989

Orbit data source: Space-Track

SKYSAT C9, 42989 is a payload satellite owned by Terra Bella (US) in SSO that was launched on Tue, 31 Oct 2017 UTC via a MINOTAUR-C 3210 launch vehicle from the Air Force Western Test Range (AFWTR). Payload-class satellites include a variety of spacecraft equipped with specific instruments for various scientific and technological missions. These include communications satellites like Starlink; space stations such as the ISS; scientific satellites like the Hubble; Earth observation satellites from companies like Planet Labs, Umbra, and HawkEye 360; GPS; miniature CubeSats for education and research; and military/defense satellites.

Loading next visibility...
Identifier
42989, 2017-068C
Orbit
SSO
Country
Flag of USUS
Related business
Manufacturer
Maxar SSL
Mission
Operational Commercial Imaging
Bus & Motor
SKYSAT-GEN2, Unknown motor
Mass
110 kg wet, 110 kg dry
Launch date (UTC)
2017-10-31 (8 years ago)
Launch vehicle
MINOTAUR-C 3210
Launch site
Air Force Western Test Range (AFWTR)
Object type
Payload
Rocket body
Debris
Shape & HBR
Box, 1.0 m
Radar Cross Section
0.888 m², Medium (>0.1 m² and < 1m²)

Expand to show TLE details & history
Last TLE update: 1 day ago

TLE from 1 day ago
0 SKYSAT C9
1 42989U 17068C   25302.63303346  .00016870  00000-0  49936-3 0  9990
2 42989  97.4155  72.6007 0006916 240.2297 119.8259 15.34936930447312
Epoch: 2025-10-29T15:11Z
TLE epoch observation values (Epoch: 2025-10-29T15:11:34.090Z)
Latitude
-0.00002°
Longitude
166.50529°
Altitude
466.574 km
Speed
7.632 km/s
True Right ascension
04h 50m 24s
True Declination
0° 00' 00"
Sunlit
Object was in full shadow at epoch
Visualization orbit readout
Latitude
Unknown
Longitude
Unknown
Altitude
Unknown
Speed
Unknown
Apparent Right ascension
Unknown
Apparent Declination
Unknown
Sunlit
N/A
Visualization observer readout
Local Sidereal Time
12:25:01
Azimuth
Unknown
Elevation
Unknown
Doppler factor
Unknown
Orbital elements
Apogee altitude
462.782 km
Perigee altitude
453.326 km
Semi-major axis
6,836.191 km
Eccentricity
0.00069
Inclination
97.4155°
RAAN
72.6007°
Arg. of periapsis
240.2297°
True anomaly
119.89462°
Mean anomaly
119.8259°
Eccentric anomaly
119.86027°
Mean motion
3.83992 °/min
Orbital period
93.75 mins
BSTAR
0.00049936
Loading maneuver chart data...
Computing Atmospheric mass density...
Loading historical data...
Loading historical data...
Loading historical data...
Loading historical data...
Loading historical data...
Loading historical data...
Loading historical data...

Documentation

Showing up to 5 results
|